Location: Chiqueritos
(32.3920°N, 116.9670°W)
Time: 17:58:35
(UTC+00:00)

Daily predictions for brighter satellites

Satellite Brightness Start Highest point End
(mag) Time Altitude Azimuth Time Altitude Azimuth Time Altitude Azimuth
MOS 1 Rocket 4.1 12:01:53 10° SSE 12:06:01 50° ENE 12:10:11 10° N
Tianhe-1 3.3 12:03:47 10° WNW 12:06:15 21° NNW 12:08:45 10° NE
BREEZE-M DEB (TANK) 4.4 12:08:37 10° NNW 12:11:16 36° NE 12:17:30 10° ESE
CENTAUR R/B 3.5 12:03:08 10° NNW 12:11:42 84° ENE 12:20:40 10° SSE
USA 238 DEB 4.1 12:04:41 10° NNW 12:12:08 86° ENE 12:19:48 10° SSE
USA 238 4.1 12:04:47 10° NNW 12:12:14 86° ENE 12:19:55 10° SSE
DELTA 2 R/B (1) 4.0 12:08:10 10° WNW 12:13:42 67° NNE 12:19:14 10° ESE
CZ-2C R/B 3.2 12:09:44 10° N 12:14:04 33° WNW 12:18:16 10° SW
